QPF
0.00 0.00 0.00 0.00 0.00 0.00 0.00 0.00 0.00 0.00 0.00 0.00 0.00 0.00 0.00 0.00 0.00 0.00 0.00 0.00 0.00 0.00 0.00 0.01 0.01 0.01 0.01 0.01 0.00 0.00 0.00 0.00 0.00 0.00 0.00 0.01 0.00 0.00 0.00 0.00 0.00 0.00 0.00 0.00 0.00 0.00 0.00 0.00 0.00
0.00 0.00 0.00 0.00 0.00 0.00 0.00 0.00 0.00 0.00 0.00 0.00 0.00 0.00 0.00 0.00 0.00 0.00 0.00 0.00 0.00 0.00 0.00 0.01 0.01 0.01 0.01 0.00 0.00 0.00 0.00 0.00 0.00 0.00 0.01 0.01 0.00 0.00 0.00 0.00 0.00 0.00 0.00 0.00 0.00 0.00 0.00 0.00 0.00
0.00 0.00 0.00 0.00 0.00 0.00 0.00 0.00 0.00 0.00 0.00 0.00 0.00 0.00 0.00 0.00 0.00 0.00 0.00 0.00 0.00 0.00 0.00 0.01 0.01 0.01 0.01 0.00 0.00 0.00 0.00 0.00 0.00 0.00 0.01 0.01 0.01 0.01 0.00 0.00 0.00 0.00 0.00 0.00 0.00 0.00 0.00 0.00 0.00
0.00 0.00 0.00 0.00 0.00 0.00 0.00 0.00 0.00 0.00 0.00 0.00 0.00 0.00 0.00 0.00 0.00 0.00 0.00 0.00 0.00 0.00 0.01 0.01 0.01 0.01 0.00 0.00 0.00 0.00 0.00 0.00 0.00 0.00 0.01 0.01 0.01 0.01 0.00 0.00 0.00 0.00 0.00 0.00 0.00 0.00 0.00 0.00 0.00
0.01 0.01 0.00 0.00 0.00 0.00 0.00 0.00 0.00 0.00 0.00 0.00 0.00 0.00 0.00 0.00 0.00 0.00 0.00 0.00 0.00 0.00 0.01 0.01 0.01 0.01 0.00 0.00 0.00 0.00 0.00 0.00 0.00 0.00 0.01 0.01 0.01 0.01 0.00 0.00 0.00 0.00 0.00 0.00 0.00 0.00 0.00 0.00 0.00
0.04 0.02 0.01 0.00 0.00 0.00 0.00 0.00 0.00 0.00 0.00 0.00 0.00 0.00 0.00 0.00 0.00 0.00 0.00 0.00 0.00 0.00 0.01 0.02 0.01 0.01 0.01 0.00 0.00 0.00 0.00 0.00 0.00 0.01 0.01 0.01 0.01 0.00 0.00 0.00 0.00 0.00 0.00 0.00 0.00 0.00 0.00 0.00 0.00
0.05 0.03 0.01 0.00 0.00 0.00 0.00 0.00 0.00 0.00 0.00 0.00 0.00 0.00 0.00 0.01 0.01 0.01 0.01 0.01 0.01 0.01 0.01 0.02 0.02 0.01 0.01 0.00 0.00 0.00 0.00 0.00 0.00 0.01 0.01 0.00 0.00 0.00 0.00 0.00 0.00 0.00 0.00 0.00 0.00 0.00 0.00 0.00 0.00
0.05 0.06 0.02 0.00 0.00 0.00 0.00 0.00 0.00 0.00 0.00 0.00 0.00 0.00 0.01 0.01 0.01 0.01 0.01 0.01 0.02 0.02 0.02 0.02 0.02 0.02 0.01 0.01 0.00 0.00 0.00 0.00 0.00 0.00 0.00 0.00 0.00 0.00 0.00 0.00 0.00 0.00 0.00 0.00 0.00 0.00 0.00 0.00 0.00
0.06 0.09 0.04 0.01 0.00 0.00 0.00 0.00 0.00 0.00 0.00 0.00 0.00 0.00 0.00 0.02 0.02 0.02 0.02 0.02 0.03 0.02 0.02 0.02 0.02 0.02 0.01 0.01 0.00 0.00 0.00 0.00 0.00 0.00 0.00 0.00 0.00 0.00 0.00 0.00 0.00 0.00 0.00 0.00 0.00 0.00 0.00 0.00 0.00
0.09 0.07 0.03 0.00 0.00 0.00 0.00 0.00 0.00 0.00 0.00 0.00 0.00 0.00 0.02 0.04 0.03 0.02 0.02 0.01 0.02 0.02 0.02 0.02 0.02 0.02 0.01 0.01 0.00 0.00 0.00 0.00 0.00 0.00 0.00 0.00 0.00 0.00 0.00 0.00 0.00 0.00 0.00 0.00 0.00 0.00 0.00 0.00 0.00
0.06 0.03 0.01 0.00 0.00 0.00 0.00 0.00 0.00 0.00 0.00 0.00 0.00 0.01 0.03 0.06 0.05 0.02 0.01 0.01 0.01 0.01 0.02 0.02 0.02 0.01 0.01 0.01 0.00 0.00 0.00 0.00 0.00 0.00 0.00 0.00 0.00 0.00 0.00 0.00 0.00 0.00 0.00 0.00 0.00 0.00 0.00 0.00 0.00
0.04 0.02 0.01 0.01 0.01 0.00 0.01 0.00 0.00 0.00 0.00 0.00 0.00 0.01 0.03 0.05 0.05 0.03 0.02 0.01 0.01 0.01 0.01 0.01 0.01 0.01 0.01 0.01 0.00 0.00 0.00 0.00 0.00 0.00 0.00 0.00 0.00 0.00 0.00 0.00 0.00 0.00 0.00 0.00 0.00 0.00 0.00 0.00 0.00
0.04 0.02 0.02 0.02 0.02 0.01 0.01 0.01 0.00 0.00 0.00 0.00 0.00 0.01 0.02 0.04 0.06 0.06 0.04 0.03 0.01 0.01 0.01 0.01 0.01 0.01 0.01 0.01 0.00 0.00 0.00 0.00 0.00 0.00 0.00 0.00 0.00 0.00 0.00 0.00 0.00 0.00 0.00 0.00 0.00 0.00 0.00 0.00 0.00
0.03 0.04 0.04 0.05 0.04 0.03 0.01 0.01 0.00 0.00 0.00 0.00 0.01 0.01 0.02 0.04 0.07 0.08 0.06 0.05 0.03 0.02 0.01 0.01 0.01 0.01 0.01 0.01 0.00 0.00 0.00 0.00 0.00 0.00 0.00 0.00 0.00 0.00 0.00 0.00 0.00 0.00 0.00 0.00 0.00 0.00 0.00 0.00 0.00
0.03 0.06 0.07 0.07 0.06 0.04 0.03 0.02 0.01 0.00 0.00 0.00 0.00 0.01 0.01 0.03 0.05 0.06 0.06 0.06 0.06 0.04 0.02 0.01 0.01 0.01 0.01 0.01 0.00 0.00 0.00 0.00 0.00 0.00 0.00 0.00 0.00 0.00 0.00 0.00 0.00 0.00 0.00 0.00 0.00 0.00 0.00 0.00 0.00
0.06 0.07 0.08 0.06 0.06 0.04 0.05 0.03 0.00 0.00 0.00 0.00 0.00 0.00 0.01 0.01 0.03 0.03 0.04 0.06 0.07 0.07 0.05 0.03 0.01 0.01 0.00 0.00 0.00 0.00 0.00 0.00 0.00 0.00 0.00 0.00 0.00 0.00 0.00 0.00 0.00 0.00 0.00 0.00 0.00 0.00 0.00 0.00 0.00
0.07 0.04 0.04 0.04 0.04 0.05 0.05 0.02 0.00 0.00 0.00 0.00 0.00 0.00 0.00 0.01 0.01 0.02 0.03 0.04 0.06 0.07 0.07 0.04 0.02 0.01 0.01 0.00 0.00 0.00 0.00 0.00 0.00 0.00 0.00 0.00 0.00 0.00 0.00 0.00 0.00 0.00 0.00 0.00 0.00 0.00 0.00 0.00 0.00
0.05 0.02 0.01 0.01 0.02 0.02 0.03 0.01 0.00 0.00 0.00 0.00 0.00 0.00 0.00 0.00 0.01 0.01 0.01 0.02 0.04 0.05 0.05 0.04 0.03 0.03 0.02 0.01 0.01 0.00 0.00 0.00 0.00 0.00 0.00 0.00 0.00 0.00 0.00 0.00 0.00 0.00 0.00 0.00 0.00 0.00 0.00 0.00 0.00
0.03 0.01 0.01 0.00 0.01 0.01 0.01 0.01 0.01 0.00 0.00 0.01 0.00 0.00 0.00 0.00 0.00 0.00 0.01 0.01 0.01 0.02 0.03 0.04 0.04 0.04 0.02 0.01 0.01 0.00 0.00 0.00 0.00 0.00 0.00 0.00 0.00 0.00 0.00 0.00 0.00 0.00 0.00 0.00 0.00 0.00 0.00 0.00 0.00
0.03 0.02 0.01 0.00 0.00 0.01 0.01 0.01 0.01 0.01 0.00 0.01 0.01 0.00 0.00 0.00 0.00 0.00 0.00 0.00 0.01 0.01 0.02 0.02 0.03 0.03 0.03 0.02 0.01 0.01 0.00 0.00 0.00 0.00 0.00 0.00 0.00 0.00 0.00 0.00 0.00 0.00 0.00 0.00 0.00 0.00 0.01 0.01 0.00
0.03 0.02 0.01 0.00 0.00 0.01 0.01 0.01 0.00 0.00 0.00 0.00 0.01 0.00 0.00 0.00 0.00 0.00 0.00 0.00 0.00 0.01 0.01 0.01 0.01 0.01 0.02 0.02 0.02 0.01 0.01 0.01 0.00 0.00 0.00 0.00 0.00 0.00 0.00 0.00 0.00 0.00 0.00 0.01 0.01 0.01 0.01 0.01 0.01
0.03 0.01 0.01 0.01 0.01 0.01 0.01 0.01 0.00 0.00 0.00 0.00 0.00 0.00 0.00 0.00 0.00 0.00 0.00 0.00 0.00 0.00 0.00 0.01 0.01 0.01 0.01 0.01 0.01 0.01 0.00 0.00 0.00 0.00 0.00 0.00 0.00 0.00 0.00 0.00 0.00 0.00 0.00 0.00 0.00 0.01 0.01 0.01 0.01
0.02 0.01 0.01 0.01 0.01 0.01 0.00 0.00 0.00 0.00 0.00 0.00 0.00 0.00 0.00 0.00 0.00 0.00 0.00 0.00 0.00 0.00 0.00 0.00 0.00 0.00 0.00 0.00 0.00 0.00 0.00 0.00 0.00 0.00 0.00 0.00 0.00 0.00 0.00 0.00 0.00 0.00 0.00 0.00 0.00 0.00 0.01 0.01 0.01
0.02 0.02 0.02 0.02 0.02 0.02 0.00 0.00 0.00 0.00 0.00 0.00 0.00 0.00 0.00 0.00 0.00 0.00 0.00 0.00 0.00 0.00 0.00 0.00 0.00 0.00 0.00 0.00 0.00 0.00 0.00 0.00 0.00 0.00 0.00 0.00 0.00 0.00 0.00 0.00 0.00 0.00 0.00 0.00 0.00 0.00 0.00 0.01 0.01
0.04 0.04 0.05 0.06 0.04 0.01 0.00 0.00 0.00 0.00 0.00 0.00 0.00 0.00 0.00 0.00 0.00 0.00 0.00 0.00 0.00 0.00 0.00 0.00 0.00 0.00 0.00 0.00 0.00 0.00 0.00 0.00 0.00 0.00 0.00 0.00 0.00 0.00 0.00 0.00 0.00 0.00 0.00 0.00 0.00 0.00 0.00 0.00 0.00
0.04 0.03 0.02 0.02 0.01 0.00 0.00 0.00 0.00 0.00 0.00 0.00 0.00 0.00 0.00 0.00 0.00 0.00 0.00 0.00 0.00 0.00 0.00 0.00 0.00 0.00 0.00 0.00 0.00 0.00 0.00 0.00 0.00 0.00 0.00 0.00 0.00 0.00 0.00 0.00 0.00 0.00 0.00 0.00 0.00 0.00 0.00 0.00 0.00
0.04 0.02 0.01 0.01 0.00 0.00 0.00 0.00 0.00 0.00 0.00 0.00 0.00 0.00 0.00 0.00 0.00 0.00 0.00 0.00 0.00 0.00 0.00 0.00 0.00 0.00 0.00 0.00 0.00 0.00 0.00 0.00 0.00 0.00 0.00 0.00 0.00 0.00 0.00 0.00 0.00 0.00 0.00 0.00 0.00 0.00 0.00 0.00 0.00
0.03 0.02 0.01 0.01 0.00 0.00 0.00 0.00 0.00 0.00 0.00 0.00 0.00 0.00 0.00 0.00 0.00 0.00 0.00 0.00 0.00 0.00 0.00 0.00 0.00 0.00 0.00 0.00 0.00 0.00 0.00 0.00 0.00 0.00 0.00 0.00 0.00 0.00 0.00 0.00 0.00 0.00 0.00 0.00 0.00 0.00 0.00 0.00 0.00
0.02 0.01 0.01 0.01 0.01 0.00 0.00 0.00 0.00 0.00 0.00 0.00 0.00 0.00 0.00 0.00 0.00 0.00 0.00 0.00 0.00 0.00 0.00 0.00 0.00 0.00 0.00 0.00 0.00 0.00 0.00 0.00 0.00 0.00 0.00 0.00 0.00 0.00 0.00 0.00 0.00 0.00 0.00 0.00 0.00 0.00 0.00 0.00 0.00
0.01 0.01 0.01 0.01 0.01 0.00 0.00 0.00 0.00 0.00 0.00 0.00 0.00 0.00 0.00 0.00 0.00 0.00 0.00 0.00 0.00 0.00 0.00 0.00 0.00 0.00 0.00 0.00 0.00 0.00 0.00 0.00 0.00 0.00 0.00 0.00 0.00 0.00 0.00 0.00 0.00 0.00 0.00 0.00 0.00 0.00 0.00 0.00 0.00
MSLP
1015.77 1015.91 1016.19 1016.56 1016.93 1017.23 1017.38 1017.35 1017.16 1016.83 1016.45 1016.09 1015.81 1015.63 1015.56 1015.56 1015.59 1015.60 1015.59 1015.57 1015.59 1015.68 1015.91 1016.28 1016.80 1017.39 1017.99 1018.52 1018.91 1019.13 1019.20 1019.15 1019.06 1019.00 1019.00 1019.09 1019.26 1019.46 1019.65 1019.78 1019.85 1019.85 1019.82 1019.80 1019.81 1019.87 1019.99 1020.13 1020.26
1015.86 1016.04 1016.36 1016.74 1017.10 1017.38 1017.49 1017.42 1017.17 1016.78 1016.34 1015.91 1015.58 1015.36 1015.26 1015.24 1015.28 1015.32 1015.36 1015.39 1015.47 1015.62 1015.90 1016.32 1016.86 1017.48 1018.10 1018.64 1019.06 1019.32 1019.43 1019.42 1019.38 1019.35 1019.37 1019.47 1019.64 1019.83 1020.01 1020.14 1020.21 1020.22 1020.21 1020.21 1020.24 1020.31 1020.42 1020.53 1020.62
1016.02 1016.22 1016.53 1016.89 1017.23 1017.47 1017.54 1017.43 1017.14 1016.72 1016.25 1015.80 1015.44 1015.20 1015.09 1015.08 1015.13 1015.20 1015.29 1015.38 1015.50 1015.71 1016.02 1016.45 1016.99 1017.60 1018.21 1018.75 1019.18 1019.46 1019.61 1019.66 1019.66 1019.67 1019.73 1019.85 1020.01 1020.19 1020.35 1020.47 1020.53 1020.55 1020.56 1020.57 1020.62 1020.70 1020.81 1020.90 1020.96
1016.24 1016.43 1016.71 1017.03 1017.31 1017.50 1017.54 1017.41 1017.11 1016.70 1016.24 1015.80 1015.45 1015.22 1015.12 1015.12 1015.18 1015.28 1015.40 1015.53 1015.69 1015.92 1016.25 1016.67 1017.19 1017.77 1018.34 1018.85 1019.26 1019.55 1019.73 1019.83 1019.88 1019.95 1020.04 1020.18 1020.35 1020.52 1020.67 1020.77 1020.83 1020.85 1020.87 1020.91 1020.97 1021.07 1021.17 1021.26 1021.30
1016.46 1016.62 1016.85 1017.11 1017.35 1017.49 1017.51 1017.39 1017.12 1016.75 1016.35 1015.96 1015.66 1015.45 1015.37 1015.37 1015.45 1015.56 1015.69 1015.84 1016.02 1016.25 1016.57 1016.97 1017.45 1017.97 1018.48 1018.94 1019.32 1019.61 1019.80 1019.93 1020.03 1020.14 1020.28 1020.46 1020.64 1020.82 1020.96 1021.06 1021.12 1021.15 1021.19 1021.24 1021.32 1021.42 1021.53 1021.61 1021.63
1016.63 1016.75 1016.93 1017.13 1017.32 1017.44 1017.46 1017.37 1017.17 1016.88 1016.57 1016.27 1016.03 1015.88 1015.81 1015.82 1015.89 1015.99 1016.11 1016.25 1016.42 1016.65 1016.94 1017.30 1017.73 1018.19 1018.63 1019.04 1019.38 1019.63 1019.83 1019.97 1020.11 1020.27 1020.45 1020.65 1020.86 1021.06 1021.22 1021.33 1021.40 1021.45 1021.49 1021.56 1021.65 1021.76 1021.86 1021.93 1021.94
1016.71 1016.79 1016.93 1017.08 1017.23 1017.34 1017.39 1017.36 1017.26 1017.09 1016.89 1016.69 1016.54 1016.43 1016.39 1016.39 1016.44 1016.50 1016.59 1016.70 1016.84 1017.04 1017.30 1017.63 1018.00 1018.40 1018.79 1019.14 1019.43 1019.66 1019.84 1019.99 1020.15 1020.33 1020.54 1020.78 1021.02 1021.24 1021.42 1021.56 1021.65 1021.71 1021.77 1021.85 1021.94 1022.04 1022.13 1022.19 1022.18
1016.68 1016.74 1016.83 1016.95 1017.09 1017.22 1017.32 1017.37 1017.37 1017.32 1017.24 1017.16 1017.08 1017.03 1017.00 1016.99 1017.00 1017.02 1017.05 1017.11 1017.22 1017.38 1017.61 1017.90 1018.24 1018.59 1018.94 1019.24 1019.50 1019.70 1019.86 1020.01 1020.17 1020.36 1020.59 1020.85 1021.11 1021.36 1021.57 1021.73 1021.84 1021.92 1022.00 1022.07 1022.15 1022.24 1022.31 1022.35 1022.32
1016.55 1016.59 1016.67 1016.79 1016.93 1017.09 1017.24 1017.38 1017.48 1017.54 1017.58 1017.59 1017.59 1017.59 1017.57 1017.54 1017.51 1017.47 1017.45 1017.45 1017.51 1017.64 1017.83 1018.10 1018.41 1018.74 1019.06 1019.34 1019.57 1019.75 1019.89 1020.03 1020.19 1020.38 1020.61 1020.87 1021.15 1021.41 1021.64 1021.82 1021.95 1022.05 1022.12 1022.19 1022.26 1022.32 1022.36 1022.37 1022.33
1016.38 1016.42 1016.50 1016.63 1016.79 1016.99 1017.19 1017.39 1017.57 1017.72 1017.85 1017.94 1017.99 1018.02 1018.01 1017.97 1017.90 1017.82 1017.74 1017.70 1017.71 1017.80 1017.97 1018.22 1018.51 1018.83 1019.14 1019.41 1019.63 1019.80 1019.94 1020.06 1020.20 1020.38 1020.60 1020.85 1021.12 1021.39 1021.62 1021.81 1021.95 1022.06 1022.13 1022.19 1022.24 1022.27 1022.28 1022.27 1022.20
1016.21 1016.27 1016.37 1016.52 1016.71 1016.93 1017.17 1017.41 1017.64 1017.84 1018.01 1018.15 1018.24 1018.29 1018.29 1018.24 1018.15 1018.04 1017.93 1017.85 1017.83 1017.89 1018.03 1018.25 1018.54 1018.86 1019.16 1019.44 1019.66 1019.83 1019.97 1020.08 1020.21 1020.36 1020.56 1020.79 1021.04 1021.29 1021.52 1021.71 1021.85 1021.96 1022.03 1022.07 1022.10 1022.10 1022.09 1022.05 1021.97
1016.10 1016.19 1016.32 1016.50 1016.72 1016.96 1017.21 1017.46 1017.68 1017.89 1018.07 1018.21 1018.32 1018.38 1018.39 1018.35 1018.27 1018.16 1018.04 1017.94 1017.89 1017.92 1018.04 1018.24 1018.50 1018.81 1019.11 1019.39 1019.63 1019.81 1019.95 1020.06 1020.18 1020.31 1020.48 1020.68 1020.91 1021.13 1021.35 1021.52 1021.66 1021.76 1021.82 1021.85 1021.86 1021.85 1021.82 1021.76 1021.67
1016.09 1016.21 1016.39 1016.60 1016.84 1017.08 1017.32 1017.53 1017.72 1017.89 1018.03 1018.15 1018.24 1018.31 1018.35 1018.34 1018.29 1018.20 1018.09 1018.00 1017.94 1017.94 1018.02 1018.19 1018.42 1018.70 1019.00 1019.27 1019.51 1019.71 1019.85 1019.97 1020.09 1020.21 1020.36 1020.53 1020.73 1020.92 1021.11 1021.28 1021.40 1021.49 1021.55 1021.57 1021.58 1021.56 1021.52 1021.45 1021.36
1016.17 1016.33 1016.55 1016.80 1017.06 1017.29 1017.49 1017.65 1017.76 1017.85 1017.92 1017.99 1018.06 1018.13 1018.19 1018.23 1018.23 1018.19 1018.13 1018.05 1017.99 1017.97 1018.01 1018.13 1018.32 1018.56 1018.82 1019.08 1019.32 1019.52 1019.68 1019.81 1019.93 1020.05 1020.19 1020.34 1020.51 1020.69 1020.85 1021.00 1021.11 1021.19 1021.25 1021.27 1021.28 1021.27 1021.23 1021.17 1021.08
1016.30 1016.51 1016.78 1017.06 1017.33 1017.55 1017.71 1017.79 1017.81 1017.79 1017.77 1017.77 1017.80 1017.87 1017.96 1018.05 1018.13 1018.16 1018.16 1018.12 1018.07 1018.03 1018.04 1018.10 1018.22 1018.41 1018.62 1018.86 1019.08 1019.28 1019.45 1019.60 1019.72 1019.85 1019.98 1020.12 1020.28 1020.43 1020.58 1020.71 1020.82 1020.89 1020.95 1020.98 1020.99 1020.99 1020.96 1020.92 1020.85
1016.42 1016.68 1017.00 1017.33 1017.61 1017.82 1017.93 1017.93 1017.85 1017.73 1017.61 1017.53 1017.52 1017.58 1017.70 1017.85 1018.00 1018.12 1018.19 1018.20 1018.17 1018.13 1018.10 1018.10 1018.16 1018.28 1018.44 1018.63 1018.83 1019.03 1019.20 1019.35 1019.49 1019.63 1019.76 1019.90 1020.05 1020.19 1020.33 1020.44 1020.54 1020.61 1020.66 1020.69 1020.71 1020.73 1020.72 1020.70 1020.64
1016.50 1016.80 1017.17 1017.54 1017.85 1018.05 1018.12 1018.05 1017.88 1017.65 1017.43 1017.27 1017.22 1017.27 1017.41 1017.62 1017.84 1018.05 1018.19 1018.26 1018.27 1018.24 1018.19 1018.15 1018.16 1018.21 1018.32 1018.46 1018.63 1018.81 1018.98 1019.13 1019.28 1019.42 1019.56 1019.70 1019.84 1019.97 1020.09 1020.20 1020.28 1020.34 1020.38 1020.42 1020.44 1020.47 1020.48 1020.48 1020.45
1016.50 1016.85 1017.27 1017.67 1018.01 1018.20 1018.24 1018.11 1017.86 1017.54 1017.24 1017.01 1016.91 1016.94 1017.10 1017.35 1017.65 1017.92 1018.15 1018.29 1018.35 1018.33 1018.29 1018.23 1018.20 1018.22 1018.28 1018.38 1018.52 1018.67 1018.82 1018.97 1019.12 1019.26 1019.40 1019.54 1019.67 1019.79 1019.90 1019.99 1020.05 1020.09 1020.12 1020.15 1020.17 1020.20 1020.22 1020.23 1020.22
1016.45 1016.83 1017.28 1017.72 1018.07 1018.26 1018.26 1018.09 1017.77 1017.39 1017.01 1016.72 1016.58 1016.59 1016.76 1017.04 1017.39 1017.74 1018.03 1018.24 1018.36 1018.39 1018.37 1018.33 1018.30 1018.29 1018.33 1018.41 1018.52 1018.64 1018.78 1018.91 1019.05 1019.18 1019.31 1019.44 1019.56 1019.67 1019.75 1019.82 1019.86 1019.88 1019.88 1019.89 1019.89 1019.91 1019.93 1019.95 1019.96
1016.38 1016.79 1017.25 1017.70 1018.05 1018.22 1018.20 1017.98 1017.61 1017.16 1016.73 1016.40 1016.22 1016.21 1016.38 1016.68 1017.07 1017.47 1017.82 1018.10 1018.29 1018.39 1018.43 1018.43 1018.42 1018.43 1018.47 1018.53 1018.63 1018.73 1018.85 1018.96 1019.07 1019.19 1019.30 1019.41 1019.51 1019.61 1019.67 1019.71 1019.72 1019.71 1019.69 1019.66 1019.63 1019.63 1019.64 1019.65 1019.66
1016.37 1016.77 1017.23 1017.66 1017.97 1018.11 1018.04 1017.77 1017.36 1016.87 1016.40 1016.03 1015.82 1015.80 1015.96 1016.27 1016.68 1017.12 1017.53 1017.88 1018.14 1018.31 1018.42 1018.49 1018.54 1018.59 1018.66 1018.74 1018.83 1018.93 1019.02 1019.11 1019.21 1019.30 1019.39 1019.48 1019.56 1019.63 1019.68 1019.69 1019.67 1019.63 1019.56 1019.49 1019.43 1019.39 1019.37 1019.37 1019.38
1016.46 1016.84 1017.27 1017.64 1017.89 1017.96 1017.83 1017.50 1017.04 1016.51 1016.02 1015.63 1015.40 1015.37 1015.53 1015.85 1016.27 1016.73 1017.18 1017.59 1017.92 1018.17 1018.37 1018.52 1018.64 1018.76 1018.87 1018.98 1019.09 1019.19 1019.28 1019.35 1019.43 1019.50 1019.57 1019.64 1019.71 1019.76 1019.79 1019.78 1019.73 1019.65 1019.54 1019.43 1019.33 1019.25 1019.20 1019.18 1019.16
1016.68 1017.02 1017.38 1017.67 1017.82 1017.80 1017.58 1017.19 1016.68 1016.12 1015.61 1015.21 1014.99 1014.96 1015.11 1015.43 1015.86 1016.34 1016.83 1017.27 1017.67 1018.00 1018.27 1018.51 1018.72 1018.91 1019.08 1019.24 1019.38 1019.49 1019.58 1019.65 1019.71 1019.78 1019.84 1019.90 1019.96 1020.00 1020.01 1019.98 1019.91 1019.80 1019.66 1019.51 1019.37 1019.25 1019.16 1019.11 1019.07
1017.01 1017.30 1017.57 1017.75 1017.78 1017.65 1017.33 1016.87 1016.31 1015.74 1015.22 1014.83 1014.62 1014.60 1014.76 1015.08 1015.51 1016.01 1016.51 1016.99 1017.43 1017.82 1018.18 1018.49 1018.78 1019.04 1019.28 1019.49 1019.66 1019.80 1019.91 1019.99 1020.05 1020.12 1020.18 1020.24 1020.30 1020.33 1020.34 1020.30 1020.21 1020.08 1019.91 1019.73 1019.56 1019.41 1019.29 1019.20 1019.14
1017.39 1017.62 1017.79 1017.86 1017.77 1017.52 1017.11 1016.58 1015.98 1015.39 1014.89 1014.52 1014.33 1014.33 1014.51 1014.83 1015.27 1015.76 1016.27 1016.77 1017.24 1017.69 1018.10 1018.48 1018.83 1019.16 1019.46 1019.72 1019.94 1020.11 1020.24 1020.34 1020.43 1020.50 1020.57 1020.64 1020.71 1020.75 1020.75 1020.71 1020.61 1020.46 1020.28 1020.08 1019.89 1019.71 1019.57 1019.47 1019.38
1017.75 1017.92 1018.01 1017.96 1017.76 1017.41 1016.92 1016.33 1015.71 1015.13 1014.64 1014.31 1014.15 1014.17 1014.37 1014.70 1015.13 1015.62 1016.13 1016.64 1017.13 1017.61 1018.06 1018.49 1018.91 1019.29 1019.64 1019.95 1020.20 1020.41 1020.58 1020.71 1020.81 1020.91 1021.00 1021.09 1021.16 1021.20 1021.21 1021.16 1021.06 1020.90 1020.71 1020.51 1020.31 1020.13 1019.98 1019.87 1019.78
1018.02 1018.14 1018.15 1018.02 1017.73 1017.31 1016.76 1016.15 1015.52 1014.96 1014.51 1014.21 1014.08 1014.13 1014.33 1014.67 1015.09 1015.57 1016.07 1016.58 1017.08 1017.58 1018.07 1018.54 1019.00 1019.43 1019.82 1020.17 1020.47 1020.71 1020.91 1021.07 1021.21 1021.32 1021.44 1021.54 1021.61 1021.66 1021.67 1021.62 1021.51 1021.35 1021.16 1020.96 1020.77 1020.60 1020.47 1020.36 1020.28
1018.14 1018.23 1018.19 1018.00 1017.67 1017.20 1016.63 1016.02 1015.41 1014.88 1014.47 1014.20 1014.10 1014.17 1014.37 1014.69 1015.10 1015.56 1016.05 1016.55 1017.06 1017.58 1018.09 1018.60 1019.10 1019.57 1020.01 1020.39 1020.73 1021.01 1021.24 1021.42 1021.58 1021.72 1021.85 1021.96 1022.04 1022.09 1022.09 1022.03 1021.92 1021.77 1021.58 1021.39 1021.22 1021.08 1020.97 1020.90 1020.85
1018.11 1018.18 1018.11 1017.89 1017.54 1017.06 1016.51 1015.92 1015.36 1014.87 1014.49 1014.25 1014.17 1014.23 1014.42 1014.71 1015.09 1015.52 1015.99 1016.48 1017.00 1017.54 1018.08 1018.63 1019.17 1019.69 1020.17 1020.59 1020.97 1021.27 1021.53 1021.74 1021.92 1022.08 1022.21 1022.32 1022.40 1022.45 1022.44 1022.38 1022.27 1022.12 1021.95 1021.78 1021.63 1021.53 1021.46 1021.43 1021.42
1017.95 1017.99 1017.91 1017.69 1017.34 1016.89 1016.38 1015.84 1015.32 1014.87 1014.52 1014.30 1014.21 1014.25 1014.40 1014.65 1014.98 1015.37 1015.82 1016.31 1016.84 1017.40 1017.99 1018.59 1019.18 1019.74 1020.27 1020.74 1021.15 1021.49 1021.77 1022.01 1022.20 1022.37 1022.51 1022.62 1022.70 1022.73 1022.72 1022.66 1022.55 1022.41 1022.26 1022.12 1022.01 1021.94 1021.92 1021.94 1021.97
Thickness
5667 5677 5685 5687 5683 5681 5689 5700 5710 5715 5724 5735 5742 5748 5755 5758 5756 5749 5758 5769 5766 5762 5756 5749 5747 5745 5743 5741 5740 5739 5738 5737 5736 5736 5735 5734 5732 5731 5730 5729 5728 5727 5727 5725 5724 5722 5720 5719 5717
5661 5670 5674 5674 5671 5673 5685 5700 5704 5714 5723 5731 5737 5743 5748 5752 5754 5752 5755 5762 5762 5758 5754 5749 5744 5742 5740 5739 5737 5736 5735 5734 5734 5733 5732 5731 5730 5728 5727 5725 5724 5723 5722 5721 5719 5718 5716 5715 5713
5653 5661 5662 5662 5664 5676 5686 5697 5705 5713 5722 5726 5731 5738 5743 5744 5748 5750 5755 5758 5758 5754 5751 5746 5742 5740 5738 5736 5735 5734 5733 5732 5731 5730 5729 5728 5727 5725 5724 5722 5720 5719 5718 5716 5715 5714 5712 5711 5710
5645 5648 5652 5653 5660 5676 5686 5693 5701 5708 5716 5723 5728 5730 5736 5739 5745 5751 5752 5754 5754 5751 5748 5743 5739 5737 5735 5733 5732 5731 5730 5729 5728 5728 5727 5725 5723 5722 5720 5718 5717 5715 5714 5713 5711 5710 5709 5707 5706
5635 5637 5637 5644 5658 5671 5681 5689 5696 5703 5711 5718 5723 5725 5728 5733 5741 5746 5747 5749 5749 5747 5744 5740 5736 5734 5732 5730 5729 5728 5727 5726 5725 5725 5724 5722 5720 5718 5716 5715 5713 5712 5710 5709 5708 5706 5705 5704 5702
5620 5626 5629 5639 5654 5665 5675 5684 5691 5698 5706 5711 5717 5719 5719 5726 5732 5738 5741 5742 5743 5742 5740 5736 5732 5730 5729 5727 5726 5725 5724 5723 5722 5722 5721 5719 5717 5715 5713 5711 5710 5709 5707 5706 5704 5702 5701 5700 5698
5612 5618 5629 5644 5650 5655 5666 5677 5685 5692 5698 5704 5712 5713 5711 5719 5726 5731 5734 5736 5737 5736 5735 5733 5730 5727 5725 5724 5723 5722 5721 5720 5719 5718 5717 5716 5714 5712 5710 5708 5707 5705 5704 5702 5700 5699 5697 5696 5695
5612 5614 5622 5635 5642 5649 5662 5670 5678 5686 5690 5698 5705 5707 5705 5712 5720 5725 5727 5728 5730 5730 5730 5730 5728 5726 5724 5721 5719 5719 5718 5717 5716 5715 5714 5712 5711 5709 5707 5705 5703 5702 5700 5699 5697 5695 5694 5692 5691
5604 5601 5613 5630 5639 5647 5656 5662 5669 5679 5685 5688 5694 5700 5706 5711 5714 5716 5717 5719 5722 5724 5725 5725 5725 5723 5722 5720 5716 5715 5714 5713 5712 5711 5710 5709 5709 5708 5705 5703 5701 5699 5697 5696 5694 5692 5691 5689 5688
5592 5597 5617 5634 5641 5645 5648 5655 5662 5670 5674 5678 5686 5693 5700 5703 5706 5708 5710 5713 5716 5718 5719 5720 5720 5719 5718 5717 5715 5714 5712 5711 5711 5711 5709 5708 5707 5706 5703 5700 5698 5696 5695 5693 5692 5690 5689 5688 5688
5590 5602 5617 5623 5632 5637 5639 5645 5655 5662 5662 5669 5676 5685 5691 5695 5698 5701 5705 5708 5712 5714 5714 5715 5715 5715 5714 5713 5713 5712 5711 5709 5709 5708 5707 5705 5704 5702 5701 5700 5697 5696 5694 5694 5691 5690 5690 5688 5687
5587 5600 5608 5613 5619 5625 5632 5637 5645 5653 5657 5665 5674 5681 5685 5687 5691 5695 5698 5703 5706 5708 5710 5710 5711 5710 5710 5710 5709 5709 5708 5707 5706 5705 5703 5702 5702 5700 5700 5698 5697 5695 5694 5692 5691 5689 5688 5686 5685
5581 5590 5598 5605 5609 5617 5624 5630 5637 5644 5652 5661 5668 5673 5677 5681 5686 5690 5694 5697 5700 5702 5704 5706 5706 5706 5706 5705 5705 5705 5705 5704 5704 5702 5701 5699 5699 5698 5697 5696 5694 5693 5692 5690 5688 5688 5687 5685 5683
5577 5584 5589 5595 5600 5608 5614 5621 5628 5638 5647 5654 5659 5664 5670 5675 5680 5684 5687 5690 5694 5697 5699 5701 5701 5702 5701 5701 5701 5701 5701 5700 5700 5699 5698 5696 5696 5695 5694 5693 5691 5691 5689 5688 5686 5685 5683 5682 5680
5569 5572 5576 5584 5592 5599 5605 5609 5623 5637 5642 5647 5654 5659 5663 5669 5674 5678 5683 5686 5690 5692 5694 5695 5696 5696 5697 5697 5697 5697 5697 5697 5696 5696 5695 5693 5692 5691 5690 5690 5689 5688 5686 5685 5683 5682 5680 5678 5677
5559 5561 5564 5576 5585 5591 5593 5603 5626 5632 5635 5642 5649 5656 5659 5664 5669 5675 5679 5682 5685 5687 5689 5690 5691 5691 5692 5693 5693 5693 5694 5693 5693 5692 5692 5690 5689 5688 5687 5686 5686 5685 5683 5681 5680 5678 5677 5676 5674
5547 5555 5565 5572 5582 5587 5591 5604 5620 5625 5629 5637 5645 5651 5656 5660 5664 5668 5672 5676 5679 5682 5683 5684 5685 5686 5687 5687 5688 5688 5689 5688 5688 5688 5687 5687 5686 5685 5683 5683 5682 5681 5680 5678 5677 5675 5674 5672 5670
5551 5563 5569 5572 5579 5585 5590 5603 5610 5617 5622 5633 5641 5647 5651 5655 5660 5663 5666 5669 5672 5676 5678 5679 5680 5681 5681 5682 5682 5682 5683 5683 5683 5682 5682 5682 5681 5680 5680 5679 5678 5677 5675 5674 5673 5671 5669 5667 5665
5557 5563 5566 5572 5577 5581 5588 5596 5603 5610 5616 5625 5634 5641 5647 5652 5656 5657 5659 5662 5665 5668 5670 5672 5673 5674 5675 5676 5676 5676 5677 5678 5678 5677 5676 5676 5675 5675 5674 5673 5673 5671 5671 5670 5669 5666 5664 5661 5658
5550 5555 5560 5564 5570 5575 5581 5588 5599 5605 5613 5623 5630 5637 5644 5648 5649 5650 5652 5655 5658 5661 5663 5664 5666 5667 5668 5669 5670 5671 5671 5671 5671 5670 5669 5668 5668 5668 5667 5667 5667 5666 5665 5664 5663 5660 5657 5655 5652
5545 5554 5559 5562 5563 5569 5572 5579 5592 5605 5612 5619 5627 5634 5641 5644 5645 5647 5647 5648 5650 5652 5655 5656 5657 5658 5659 5660 5661 5661 5661 5662 5662 5662 5661 5660 5660 5660 5659 5659 5659 5658 5657 5657 5656 5654 5651 5649 5648
5540 5552 5557 5559 5561 5563 5569 5577 5598 5606 5608 5615 5624 5631 5637 5641 5642 5641 5641 5642 5643 5643 5644 5646 5647 5649 5650 5651 5653 5655 5655 5656 5655 5654 5652 5651 5650 5650 5650 5650 5650 5650 5649 5649 5648 5647 5644 5642 5640
5540 5547 5553 5557 5561 5561 5565 5573 5598 5603 5606 5617 5624 5629 5634 5636 5637 5636 5635 5634 5634 5634 5634 5636 5637 5639 5640 5642 5643 5645 5646 5646 5644 5643 5643 5642 5641 5640 5639 5640 5640 5640 5640 5639 5639 5637 5636 5634 5633
5536 5542 5543 5549 5552 5551 5567 5570 5590 5603 5611 5618 5622 5625 5627 5629 5630 5629 5628 5625 5625 5624 5625 5626 5628 5628 5629 5631 5633 5634 5635 5634 5634 5633 5634 5633 5632 5630 5629 5629 5629 5629 5629 5628 5628 5627 5626 5625 5624
5535 5539 5535 5535 5540 5555 5564 5567 5588 5603 5608 5611 5615 5618 5620 5622 5623 5622 5620 5618 5617 5616 5616 5617 5618 5618 5618 5619 5621 5621 5622 5623 5623 5623 5623 5623 5622 5621 5619 5618 5618 5618 5617 5617 5616 5616 5616 5614 5613
5536 5543 5544 5547 5551 5557 5552 5564 5589 5599 5598 5599 5602 5606 5608 5611 5615 5616 5614 5613 5611 5609 5609 5609 5609 5609 5608 5608 5608 5609 5609 5610 5610 5610 5610 5610 5609 5608 5606 5606 5606 5605 5605 5605 5605 5605 5603 5602 5600
5530 5535 5540 5546 5548 5552 5561 5568 5581 5592 5592 5594 5597 5598 5601 5604 5606 5607 5607 5606 5604 5602 5601 5601 5600 5598 5597 5597 5597 5597 5597 5597 5597 5596 5596 5596 5595 5594 5594 5594 5593 5593 5593 5593 5593 5592 5591 5589 5587
5530 5534 5533 5536 5540 5550 5560 5565 5579 5585 5588 5591 5593 5595 5597 5597 5598 5598 5598 5597 5595 5593 5591 5590 5590 5589 5587 5586 5586 5584 5584 5584 5583 5584 5583 5583 5582 5581 5581 5581 5581 5581 5580 5580 5580 5579 5577 5576 5573
5523 5526 5534 5539 5545 5551 5556 5569 5578 5578 5580 5582 5585 5587 5588 5589 5589 5588 5587 5586 5584 5582 5580 5579 5579 5577 5576 5575 5574 5573 5572 5571 5571 5571 5570 5569 5569 5569 5569 5569 5569 5568 5568 5567 5567 5566 5564 5562 5559
5527 5532 5535 5535 5534 5542 5553 5565 5573 5572 5572 5572 5576 5578 5579 5580 5580 5579 5578 5576 5574 5572 5571 5569 5568 5567 5565 5563 5562 5561 5559 5559 5559 5558 5557 5557 5557 5556 5556 5556 5556 5555 5555 5554 5554 5552 5550 5549 5546